Regional Weather Roundup
Issued by NWS

Home | Current Version | Previous Version | Graphics & Text | Print | Product List | Glossary On
Versions: 1 2 3 4 5 6 7 8 9 10 11 12 13 14 15 16 17 18 19 20 21 22 23 24 25 26 27 28 29 30 31 32 33 34 35 36 37 38 39 40 41 42 43 44 45 46 47 48 49 50
000
ASUS43 KBIS 201320
RWRND

NORTH DAKOTA REGIONAL WEATHER ROUNDUP
NATIONAL WEATHER SERVICE BISMARCK ND
800 AM CDT SUN APR 20 2014

NOTE: "FAIR" INDICATES FEW OR NO CLOUDS BELOW 12,000 FEET WITH NO
SIGNIFICANT WEATHER AND/OR OBSTRUCTIONS TO VISIBILITY.


NDZ001>003-009>011-017-201400-
NORTHWEST NORTH DAKOTA

CITY           SKY/WX    TMP DP  RH WIND       PRES   REMARKS
WILLISTON      MOCLDY    34  31  88 CALM      29.86S
MINOT          SUNNY     36  31  82 CALM      29.90F
MINOT AFB      SUNNY     33  33  99 SE6       29.90F
$$

NDZ018>021-031>035-040>046-201400-
SOUTHWEST NORTH DAKOTA

CITY           SKY/WX    TMP DP  RH WIND       PRES   REMARKS
BISMARCK       SUNNY     36  32  85 NE7       29.96S
DICKINSON      MOSUNNY   42  27  55 S12       29.87F
GARRISON         N/A     36  33  89 E3        29.92F
HETTINGER ARPT SUNNY     34  28  79 CALM      29.92S
$$

NDZ004>008-012>016-024-026-027-054-201400-
NORTHEAST NORTH DAKOTA

CITY           SKY/WX    TMP DP  RH WIND       PRES   REMARKS
GRAND FORKS    MOSUNNY   35  32  88 CALM      30.04S
GRND FRKS AFB  SUNNY     34  34  99 CALM      30.04S
DEVILS LAKE    SUNNY     36  30  80 SE6       29.99S
$$

NDZ022-023-025-028>030-036>039-047>053-201400-
SOUTHEAST NORTH DAKOTA

CITY           SKY/WX    TMP DP  RH WIND       PRES   REMARKS
FARGO          SUNNY     39  35  86 CALM      30.03S
JAMESTOWN      SUNNY     38  36  92 S8        30.00R
$$




USA.gov is the U.S. government's official web portal to all federal, state and local government web resources and services.